When you browse on this site, cookies collect data to enhance your experience and personalize the content and advertising you see.
Visit our Privacy Policy to learn more. By continuing to use the site, you agree to this use of cookies and data.
  • In Schweiz
  • Länderverzeichnis
  • Für 7 Tage
  • Wassertemperatur
  • Satellitenkarten
  • Wetterkarte
  • Widgets
  • user-avatar
    Anmelden

    Stündliche Wetter Hobart

    Heute, 20 Mai, Montag

    Zeit Temperatur Niederschläge Wind Luftdruck Luftfeuchtigkeit
    00:00 +8°C° 0 mm 1 m/S 754 mmHg 82%
    01:00 +8°C° 0 mm 1 m/S 754 mmHg 81%
    02:00 +8°C° 0 mm 1 m/S 753 mmHg 80%
    03:00 +8°C° 0 mm 1 m/S 753 mmHg 79%
    04:00 +6°C° 0 mm 2 m/S 753 mmHg 77%
    05:00 +7°C° 0 mm 2 m/S 752 mmHg 77%
    06:00 +7°C° 0 mm 2 m/S 752 mmHg 76%
    07:00 +8°C° 0 mm 1 m/S 752 mmHg 76%
    08:00 +10°C° 0 mm 1 m/S 752 mmHg 69%
    09:00 +12°C° 0 mm 1 m/S 751 mmHg 61%
    10:00 +15°C° 0 mm 2 m/S 751 mmHg 54%
    11:00 +17°C° 0 mm 2 m/S 750 mmHg 51%
    12:00 +18°C° 0 mm 2 m/S 750 mmHg 47%
    13:00 +20°C° 0 mm 2 m/S 749 mmHg 43%
    14:00 +18°C° 0.8 mm 2 m/S 749 mmHg 58%
    15:00 +16°C° 0.8 mm 2 m/S 748 mmHg 72%
    16:00 +13°C° 0.8 mm 1 m/S 748 mmHg 87%
    17:00 +13°C° 0.1 mm 2 m/S 748 mmHg 89%
    18:00 +12°C° 0.1 mm 2 m/S 748 mmHg 90%
    19:00 +11°C° 0.1 mm 3 m/S 747 mmHg 91%
    20:00 +11°C° 0 mm 3 m/S 747 mmHg 91%
    21:00 +11°C° 0 mm 3 m/S 747 mmHg 91%
    22:00 +11°C° 0 mm 3 m/S 747 mmHg 92%
    23:00 +10°C° 0 mm 3 m/S 746 mmHg 91%

    Morgen, 21 Mai, Dienstag

    Zeit Temperatur Niederschläge Wind Luftdruck Luftfeuchtigkeit
    00:00 +10°C° 0 mm 3 m/S 746 mmHg 91%
    01:00 +10°C° 0 mm 3 m/S 745 mmHg 90%
    02:00 +10°C° 0 mm 3 m/S 745 mmHg 89%
    03:00 +10°C° 0 mm 3 m/S 745 mmHg 88%
    04:00 +11°C° 0 mm 3 m/S 745 mmHg 87%
    05:00 +11°C° 0 mm 3 m/S 746 mmHg 86%
    06:00 +11°C° 0 mm 3 m/S 746 mmHg 85%
    07:00 +12°C° 0 mm 3 m/S 746 mmHg 84%
    08:00 +12°C° 0 mm 3 m/S 747 mmHg 81%
    09:00 +13°C° 0 mm 3 m/S 747 mmHg 79%
    10:00 +13°C° 0 mm 3 m/S 748 mmHg 76%
    11:00 +14°C° 0 mm 4 m/S 748 mmHg 74%
    12:00 +14°C° 0 mm 4 m/S 748 mmHg 71%
    13:00 +15°C° 0 mm 4 m/S 748 mmHg 69%
    14:00 +14°C° 0 mm 4 m/S 748 mmHg 69%
    15:00 +14°C° 0 mm 3 m/S 748 mmHg 69%
    16:00 +14°C° 0 mm 3 m/S 748 mmHg 69%
    17:00 +13°C° 0 mm 3 m/S 749 mmHg 73%
    18:00 +12°C° 0 mm 3 m/S 749 mmHg 78%
    19:00 +11°C° 0 mm 3 m/S 749 mmHg 82%
    20:00 +10°C° 0 mm 3 m/S 750 mmHg 82%
    21:00 +10°C° 0 mm 3 m/S 750 mmHg 81%
    22:00 +10°C° 0 mm 3 m/S 750 mmHg 81%
    23:00 +11°C° 0 mm 3 m/S 751 mmHg 80%

    übermorgen, 22 Mai, Mittwoch

    Zeit Temperatur Niederschläge Wind Luftdruck Luftfeuchtigkeit
    00:00 +11°C° 0 mm 3 m/S 751 mmHg 79%
    01:00 +11°C° 0 mm 3 m/S 751 mmHg 78%
    02:00 +12°C° 0.1 mm 2 m/S 751 mmHg 80%
    03:00 +12°C° 0.1 mm 2 m/S 751 mmHg 82%
    04:00 +12°C° 0.1 mm 2 m/S 751 mmHg 84%
    05:00 +12°C° 0 mm 2 m/S 752 mmHg 87%
    06:00 +10°C° 0 mm 2 m/S 752 mmHg 89%
    07:00 +10°C° 0 mm 1 m/S 752 mmHg 92%
    08:00 +10°C° 0 mm 2 m/S 753 mmHg 83%
    09:00 +11°C° 0 mm 3 m/S 753 mmHg 74%
    10:00 +13°C° 0 mm 3 m/S 753 mmHg 65%
    11:00 +13°C° 0 mm 3 m/S 753 mmHg 61%
    12:00 +14°C° 0 mm 3 m/S 753 mmHg 57%
    13:00 +14°C° 0 mm 3 m/S 753 mmHg 53%
    14:00 +14°C° 0 mm 3 m/S 753 mmHg 56%
    15:00 +13°C° 0 mm 3 m/S 753 mmHg 59%
    16:00 +13°C° 0 mm 3 m/S 753 mmHg 62%
    17:00 +12°C° 0 mm 3 m/S 754 mmHg 68%
    18:00 +11°C° 0 mm 3 m/S 754 mmHg 74%
    19:00 +10°C° 0 mm 2 m/S 754 mmHg 80%
    20:00 +9°C° 0 mm 2 m/S 754 mmHg 82%
    21:00 +9°C° 0 mm 2 m/S 755 mmHg 84%
    22:00 +8°C° 0 mm 2 m/S 755 mmHg 86%
    23:00 +8°C° 0 mm 2 m/S 755 mmHg 85%

    23 Mai, Donnerstag

    Zeit Temperatur Niederschläge Wind Luftdruck Luftfeuchtigkeit
    00:00 +8°C° 0 mm 2 m/S 754 mmHg 84%
    01:00 +8°C° 0 mm 3 m/S 754 mmHg 82%
    02:00 +8°C° 0 mm 3 m/S 754 mmHg 82%
    03:00 +8°C° 0 mm 3 m/S 753 mmHg 82%
    04:00 +9°C° 0 mm 3 m/S 753 mmHg 81%
    05:00 +9°C° 0 mm 3 m/S 753 mmHg 82%
    06:00 +9°C° 0 mm 3 m/S 752 mmHg 82%
    07:00 +9°C° 0 mm 3 m/S 752 mmHg 83%
    08:00 +11°C° 0 mm 3 m/S 752 mmHg 76%
    09:00 +12°C° 0 mm 4 m/S 752 mmHg 69%
    10:00 +14°C° 0 mm 4 m/S 752 mmHg 62%
    11:00 +15°C° 0 mm 4 m/S 751 mmHg 59%
    12:00 +15°C° 0 mm 4 m/S 751 mmHg 55%
    13:00 +17°C° 0 mm 4 m/S 750 mmHg 51%
    14:00 +17°C° 0 mm 4 m/S 749 mmHg 51%
    15:00 +16°C° 0 mm 3 m/S 749 mmHg 50%
    16:00 +16°C° 0 mm 2 m/S 748 mmHg 49%
    17:00 +13°C° 0 mm 3 m/S 748 mmHg 55%
    18:00 +12°C° 0 mm 3 m/S 747 mmHg 61%
    19:00 +11°C° 0 mm 3 m/S 747 mmHg 66%
    20:00 +11°C° 0 mm 4 m/S 747 mmHg 66%
    21:00 +11°C° 0 mm 4 m/S 747 mmHg 65%
    22:00 +11°C° 0 mm 4 m/S 747 mmHg 64%
    23:00 +12°C° 0.2 mm 4 m/S 747 mmHg 68%

    24 Mai, Freitag

    Zeit Temperatur Niederschläge Wind Luftdruck Luftfeuchtigkeit
    00:00 +12°C° 0.2 mm 3 m/S 747 mmHg 72%
    01:00 +12°C° 0.2 mm 3 m/S 747 mmHg 76%
    02:00 +13°C° 0.2 mm 2 m/S 747 mmHg 81%
    03:00 +12°C° 0.2 mm 1 m/S 747 mmHg 85%
    04:00 +11°C° 0.2 mm 1 m/S 747 mmHg 89%
    05:00 +11°C° 0.2 mm 1 m/S 748 mmHg 89%
    06:00 +11°C° 0.2 mm 1 m/S 748 mmHg 89%
    07:00 +10°C° 0.2 mm 0 m/S 748 mmHg 88%
    08:00 +11°C° 0.1 mm 1 m/S 748 mmHg 82%
    09:00 +11°C° 0.1 mm 1 m/S 749 mmHg 77%
    10:00 +12°C° 0.1 mm 2 m/S 749 mmHg 71%
    11:00 +12°C° 0 mm 2 m/S 748 mmHg 66%
    12:00 +13°C° 0 mm 2 m/S 748 mmHg 61%
    13:00 +12°C° 0 mm 3 m/S 748 mmHg 56%
    14:00 +11°C° 0 mm 3 m/S 747 mmHg 57%
    15:00 +11°C° 0 mm 3 m/S 747 mmHg 59%
    16:00 +10°C° 0 mm 3 m/S 747 mmHg 61%
    17:00 +9°C° 0 mm 2 m/S 748 mmHg 67%
    18:00 +8°C° 0 mm 2 m/S 748 mmHg 74%
    19:00 +7°C° 0 mm 2 m/S 748 mmHg 80%
    20:00 +7°C° 0 mm 2 m/S 748 mmHg 81%
    21:00 +6°C° 0 mm 2 m/S 748 mmHg 82%
    22:00 +6°C° 0 mm 2 m/S 748 mmHg 83%
    23:00 +6°C° 0 mm 2 m/S 748 mmHg 82%

    25 Mai, Samstag

    Zeit Temperatur Niederschläge Wind Luftdruck Luftfeuchtigkeit
    00:00 +6°C° 0 mm 2 m/S 748 mmHg 81%
    01:00 +6°C° 0 mm 2 m/S 748 mmHg 80%
    02:00 +6°C° 0 mm 2 m/S 748 mmHg 79%
    03:00 +6°C° 0 mm 2 m/S 747 mmHg 79%
    04:00 +6°C° 0 mm 2 m/S 747 mmHg 79%
    05:00 +6°C° 0 mm 2 m/S 747 mmHg 79%
    06:00 +5°C° 0 mm 2 m/S 747 mmHg 79%
    07:00 +5°C° 0 mm 2 m/S 747 mmHg 79%
    08:00 +5°C° 0 mm 3 m/S 747 mmHg 72%
    09:00 +8°C° 0 mm 3 m/S 747 mmHg 65%
    10:00 +9°C° 0 mm 3 m/S 747 mmHg 57%
    11:00 +10°C° 0 mm 3 m/S 746 mmHg 55%
    12:00 +11°C° 0 mm 4 m/S 746 mmHg 53%
    13:00 +12°C° 0 mm 4 m/S 745 mmHg 50%
    14:00 +12°C° 0 mm 3 m/S 745 mmHg 51%
    15:00 +12°C° 0 mm 3 m/S 744 mmHg 52%
    16:00 +12°C° 0 mm 3 m/S 744 mmHg 52%
    17:00 +10°C° 0 mm 3 m/S 743 mmHg 58%
    18:00 +9°C° 0 mm 3 m/S 743 mmHg 64%
    19:00 +8°C° 0 mm 3 m/S 743 mmHg 69%
    20:00 +8°C° 0 mm 3 m/S 742 mmHg 71%
    21:00 +7°C° 0 mm 4 m/S 742 mmHg 72%
    22:00 +7°C° 0 mm 4 m/S 741 mmHg 74%
    23:00 +7°C° 0 mm 4 m/S 740 mmHg 73%
    Mehr zeigen